Christmas Island, Australian Islands

9:15 PM CXT on February 12, 2016 (GMT +0700)
Christmas Island

Weather History for YPXM - October, 2011

Change the Weather History Date:

Monday, October 24, 2011

  Actual Average Record
Temperature  
Mean Temperature 77 °F -  
Max Temperature 80 °F 77 °F 82 °F (1997)
Min Temperature 74 °F 71 °F 71 °F (2001)
Cooling Degree Days 12    
Growing Degree Days 27 (Base 50)    
Moisture  
Dew Point 74 °F    
Average Humidity 93    
Maximum Humidity 100    
Minimum Humidity 78    
Precipitation  
Precipitation 0.00 in - - ()
Sea Level Pressure  
Sea Level Pressure 29.83 in    
Wind  
Wind Speed 10 mph ()    
Max Wind Speed 15 mph    
Max Gust Speed -    
Visibility 5.7 miles    
Events      
Averages and records for this station are not official NWS values.
T = Trace of Precipitation, MM = Missing Value Source: Averaged Metar Reports

Daily Weather History Graph

Daily Weather History Graph

Search for Another Location

Airport or City:

Trip Planner

Search our weather history database for the weather conditions in past years. The results will help you decide how hot, cold, wet, or windy it might be!

Date:

Astronomy

Oct. 24, 2011 Rise Set
Actual Time 5:29 AM CXT 5:53 PM CXT
Civil Twilight 5:08 AM CXT 6:15 PM CXT
Nautical Twilight 4:42 AM CXT 6:40 PM CXT
Astronomical Twilight 4:17 AM CXT 7:05 PM CXT
Moon 2:56 AM CXT (10/24) 3:23 PM CXT (10/24)
Length of Visible Light 13h 07m
Length of Day
12h 24m
Waning Crescent, 10% of the Moon is Illuminated
Oct 24
Waning Crescent
Oct 27
New
Nov 2
First Quarter
Nov 11
Full
Nov 18
Last Quarter

Hourly Weather History & Observations

Time (CXT) Temp. Dew Point Humidity Pressure Visibility Wind Dir Wind Speed Gust Speed Precip Events Conditions
12:00 AM 75 °F 74 °F 95% 29.86 in - ESE 10.4 mph - -  
12:00 AM 75.2 °F 73.4 °F 94% 29.89 in 6.2 mi ESE 10.4 mph - N/A   Overcast
1:00 AM 75 °F 74 °F 94% 29.83 in - SE 10.4 mph - -  
1:00 AM 75.2 °F 73.4 °F 94% 29.86 in 6.2 mi SE 10.4 mph - N/A   Overcast
2:00 AM 75.2 °F 73.4 °F 94% 29.86 in 4.3 mi ESE 10.4 mph - N/A   Overcast
2:11 AM 75.2 °F 75.2 °F 100% 29.86 in 3.7 mi ESE 11.5 mph - N/A   Overcast
3:00 AM 75 °F 74 °F 96% 29.81 in 5 mi SE 10.4 mph - -  
3:00 AM 75.2 °F 73.4 °F 94% 29.83 in 5.0 mi SE 10.4 mph - N/A   Overcast
4:00 AM 74 °F 74 °F 99% 29.80 in - SE 10.4 mph - -  
4:00 AM 75.2 °F 73.4 °F 94% 29.83 in 6.2 mi SE 10.4 mph - N/A   Overcast
5:00 AM 75.2 °F 73.4 °F 94% 29.86 in 6.2 mi SE 10.4 mph - N/A   Overcast
6:00 AM 75 °F 74 °F 97% 29.83 in - SE 10.4 mph - -   Overcast
7:00 AM 75 °F 75 °F 99% 29.85 in - ESE 10.4 mph - -  
7:00 AM 75.2 °F 75.2 °F 100% 29.89 in 6.2 mi ESE 10.4 mph - N/A   Overcast
8:00 AM 75.2 °F 75.2 °F 100% 29.89 in 6.2 mi ESE 12.7 mph - N/A   Overcast
9:00 AM 77 °F 74 °F 87% 29.86 in - ESE 12.7 mph - -   Overcast
9:00 AM 77.0 °F 73.4 °F 89% 29.89 in 6.2 mi ESE 12.7 mph - N/A   Overcast
10:00 AM 78 °F 74 °F 84% 29.86 in - SE 13.8 mph - -  
10:00 AM 78.8 °F 73.4 °F 83% 29.89 in 6.2 mi SE 13.8 mph - N/A   Overcast
11:00 AM 78.8 °F 75.2 °F 89% 29.86 in 6.2 mi SE 15.0 mph - N/A   Overcast
12:00 PM 80 °F 75 °F 80% 29.81 in - ESE 13.8 mph - -  
12:00 PM 78.8 °F 75.2 °F 89% 29.83 in 6.2 mi ESE 13.8 mph - N/A   Overcast
1:00 PM 80 °F 74 °F 78% 29.78 in - East 13.8 mph - -  
1:00 PM 78.8 °F 75.2 °F 89% 29.80 in 6.2 mi East 13.8 mph - N/A   Overcast
2:00 PM 78.8 °F 73.4 °F 83% 29.80 in 6.2 mi ESE 11.5 mph - N/A   Overcast
3:00 PM 78 °F 74 °F 86% 29.75 in - ESE 12.7 mph - -  
3:00 PM 78.8 °F 75.2 °F 89% 29.80 in 6.2 mi ESE 12.7 mph - N/A   Overcast
4:00 PM 78 °F 74 °F 86% 29.74 in - ESE 10.4 mph - -  
4:00 PM 78.8 °F 75.2 °F 89% 29.77 in 6.2 mi ESE 10.4 mph - N/A   Overcast
5:00 PM 77.0 °F 75.2 °F 94% 29.77 in 6.2 mi SE 11.5 mph - N/A   Overcast
6:00 PM 76 °F 75 °F 95% 29.76 in - SE 10.4 mph - -   Overcast
6:00 PM 77.0 °F 75.2 °F 94% 29.80 in 6.2 mi SE 10.4 mph - N/A   Overcast
7:00 PM 76 °F 75 °F 95% 29.78 in - SE 11.5 mph - -  
7:00 PM 75.2 °F 75.2 °F 100% 29.83 in 6.2 mi SE 11.5 mph - N/A   Overcast
8:00 PM 75.2 °F 75.2 °F 100% 29.83 in 5.0 mi SE 11.5 mph - N/A   Overcast
9:00 PM 76 °F 75 °F 94% 29.82 in - SE 12.7 mph - -  
9:00 PM 75.2 °F 75.2 °F 100% 29.86 in 6.2 mi SE 12.7 mph - N/A   Overcast
10:00 PM 76 °F 75 °F 97% 29.82 in - ESE 12.7 mph - -  
10:00 PM 75.2 °F 75.2 °F 100% 29.86 in 4.3 mi ESE 12.7 mph - N/A   Overcast
11:00 PM 75.2 °F 75.2 °F 100% 29.86 in 4.3 mi ESE 11.5 mph - N/A   Overcast